Tracking 18987 objects as of 25-Feb-2018
HD Live streaming from Space Station
objects crossing your sky now

BEIDOU 3M6

Track BEIDOU 3M6 now!
BEIDOU 3M6 is classified as:


NORAD ID: 43208
Int'l Code: 2018-018B
Perigee: 21,551.2 km
Apogee: 22,198.4 km
Inclination: 55.0 °
Period: 787.4 minutes
Semi major axis: 28245 km
RCS: Unknown
Launch date: February 12, 2018
Source: People's Republic of China (PRC)
Launch site: Xichang Space Center, China (XSC)
aabbcc
Your satellite tracking list
Your tracking list is empty




NASA's NSSDC Master Catalog

Two Line Element Set (TLE):
1 43208U 18018B   18052.11464415 +.00000026 +00000-0 +10000-3 0  9999
2 43208 054.9831 164.8440 0114561 178.1488 181.8930 01.82882667000166
Source of the keplerian elements: AFSPC